Regional Weather Roundup
Issued by NWS

Home | Current Version | Previous Version | Graphics & Text | Print | Product List | Glossary On
Versions: 1 2 3 4 5 6 7 8 9 10 11 12 13 14 15 16 17 18 19 20 21 22 23 24 25 26 27
000
ASUS45 KBOI 282010
RWRID

IDAHO REGIONAL WEATHER ROUNDUP
NATIONAL WEATHER SERVICE BOISE ID
200 PM MDT WED SEP 28 2016

NOTE: "FAIR" INDICATES FEW OR NO CLOUDS BELOW 12000 FEET
WITH NO SIGNIFICANT WEATHER AND/OR OBSTRUCTIONS TO VISIBILITY

IDZ012-014-282100-
SOUTHWEST IDAHO


CITY           SKY/WX    TMP DP  RH WIND       PRES   REMARKS
BOISE          SUNNY     88  40  18 SE15G23   29.99F
CALDWELL       SUNNY     85  49  28 S9        29.97F
MOUNTAIN HOME  SUNNY     83  45  26 E21       30.01F
$$

IDZ016-017-282100-
SOUTHCENTRAL IDAHO


CITY           SKY/WX    TMP DP  RH WIND       PRES   REMARKS
BURLEY         SUNNY     77  45  32 N7        30.11F
JEROME         SUNNY     80  40  23 E12       30.11F
TWIN FALLS     SUNNY     77  52  41 NE8       30.10F
$$

IDZ019>023-282100-
SOUTHEAST IDAHO


CITY           SKY/WX    TMP DP  RH WIND       PRES   REMARKS
IDAHO FALLS    SUNNY     77  44  30 CALM      30.18F
POCATELLO      SUNNY     79  45  29 E7        30.16F
REXBURG        SUNNY     76  43  30 W5        30.19F
$$

IDZ006-010-011-018-031-032-282100-
CENTRAL IDAHO MOUNTAINS


CITY           SKY/WX    TMP DP  RH WIND       PRES   REMARKS
MCCALL         SUNNY     77  37  23 SE6       30.12F
HAILEY         SUNNY     73  45  35 SE12      30.20F
STANLEY          N/A     75  30  19 VRB3      30.23F
SALMON         SUNNY     72  43  35 CALM      30.11F
CHALLIS        SUNNY     74  36  25 VRB3      30.16F
$$

IDZ002-004-006-007-026-282100-
NORTHERN IDAHO


CITY           SKY/WX    TMP DP  RH WIND       PRES   REMARKS
LEWISTON       SUNNY     76  47  35 W5        29.95F
LOWELL           N/A     78  52  40 VRB3      29.93F
COEUR D`ALENE  SUNNY     74  47  38 NE13      30.02F
MULLAN PASS    SUNNY     64  44  48 VRB6      30.18S
$$




USA.gov is the U.S. government's official web portal to all federal, state and local government web resources and services.